TimeCDT,TemperatureF,Dew PointF,Humidity,Sea Level PressureIn,VisibilityMPH,Wind Direction,Wind SpeedMPH,Gust SpeedMPH,PrecipitationIn,Events,Conditions,WindDirDegrees,DateUTC
12:53 AM,42.1,-9999,N/A,30.27,10.0,NNE,10.4,-,N/A,,Clear,30,2012-10-12 05:53:00
1:53 AM,39.9,-9999,N/A,30.27,10.0,NNE,9.2,-,N/A,,Clear,30,2012-10-12 06:53:00
3:53 AM,39.9,-9999,N/A,30.28,10.0,North,11.5,-,N/A,,Mostly Cloudy,360,2012-10-12 08:53:00
4:53 AM,39.9,-9999,N/A,30.26,10.0,North,12.7,-,N/A,,Overcast,10,2012-10-12 09:53:00
5:36 AM,39.2,-9999,N/A,30.27,10.0,NNE,9.2,-,N/A,,Overcast,20,2012-10-12 10:36:00
5:53 AM,39.9,-9999,N/A,30.27,10.0,NNE,11.5,-,N/A,,Overcast,20,2012-10-12 10:53:00
6:53 AM,39.9,-9999,N/A,30.27,10.0,NNE,9.2,-,N/A,,Overcast,30,2012-10-12 11:53:00
7:53 AM,41.0,28.9,62,30.28,10.0,NNE,4.6,-,N/A,,Overcast,30,2012-10-12 12:53:00
9:53 AM,42.1,28.9,60,30.29,10.0,ENE,5.8,-,N/A,,Overcast,60,2012-10-12 14:53:00
10:53 AM,44.1,28.9,55,30.27,10.0,East,5.8,-,N/A,,Overcast,80,2012-10-12 15:53:00
12:53 PM,46.9,30.9,54,30.25,10.0,South,4.6,-,N/A,,Overcast,180,2012-10-12 17:53:00
1:53 PM,48.9,34.0,56,30.21,10.0,SSE,5.8,-,N/A,,Overcast,160,2012-10-12 18:53:00
2:53 PM,51.1,36.0,56,30.19,10.0,SSW,6.9,-,N/A,,Overcast,210,2012-10-12 19:53:00
3:53 PM,53.1,36.0,52,30.11,10.0,South,5.8,-,N/A,,Mostly Cloudy,180,2012-10-12 20:53:00
4:31 PM,53.6,37.4,54,30.08,10.0,SSE,9.2,-,N/A,,Scattered Clouds,150,2012-10-12 21:31:00
4:43 PM,53.6,37.4,54,30.07,10.0,South,8.1,-,N/A,,Mostly Cloudy,170,2012-10-12 21:43:00
4:53 PM,54.0,37.9,55,30.07,10.0,SE,10.4,-,N/A,,Mostly Cloudy,140,2012-10-12 21:53:00
5:07 PM,53.6,37.4,54,30.05,10.0,SE,9.2,-,N/A,,Scattered Clouds,130,2012-10-12 22:07:00
6:38 PM,53.6,41.0,62,30.07,10.0,SSE,9.2,-,N/A,,Mostly Cloudy,150,2012-10-12 23:38:00
6:53 PM,53.1,41.0,64,30.07,10.0,SSE,11.5,-,N/A,,Overcast,160,2012-10-12 23:53:00
7:51 PM,51.8,42.8,71,30.00,10.0,SE,12.7,-,N/A,,Scattered Clouds,130,2012-10-13 00:51:00
7:53 PM,51.1,42.1,71,30.02,10.0,SE,10.4,-,N/A,,Partly Cloudy,130,2012-10-13 00:53:00
8:53 PM,48.0,43.0,83,30.03,10.0,ESE,4.6,-,N/A,,Clear,110,2012-10-13 01:53:00
9:11 PM,48.2,42.8,82,30.00,10.0,ESE,4.6,-,N/A,,Mostly Cloudy,110,2012-10-13 02:11:00
9:42 PM,48.2,44.6,87,30.00,10.0,East,4.6,-,N/A,,Overcast,100,2012-10-13 02:42:00
9:53 PM,48.9,44.1,83,30.03,10.0,ESE,3.5,-,N/A,,Overcast,120,2012-10-13 02:53:00
10:39 PM,50.0,44.6,82,30.00,10.0,Calm,Calm,-,N/A,,Overcast,0,2012-10-13 03:39:00
10:53 PM,50.0,44.1,80,30.01,10.0,Calm,Calm,-,N/A,,Overcast,0,2012-10-13 03:53:00
11:32 PM,50.0,44.6,82,29.97,6.0,Calm,Calm,-,0.02,Rain-Thunderstorm,Light Thunderstorms and Rain,0,2012-10-13 04:32:00
11:39 PM,48.2,46.4,93,29.95,2.5,ENE,3.5,-,0.09,Rain-Thunderstorm,Light Thunderstorms and Rain,70,2012-10-13 04:39:00
11:53 PM,48.9,46.9,93,29.94,6.0,ENE,4.6,-,0.11,Rain-Thunderstorm,Light Thunderstorms and Rain,60,2012-10-13 04:53:00